Regional Weather Roundup
Issued by NWS

Home | Current Version | Previous Version | Graphics & Text | Print | Product List | Glossary On
Versions: 1 2 3 4 5 6 7 8 9 10 11 12 13 14 15 16 17 18 19 20 21 22 23 24 25 26 27 28 29 30 31 32 33 34 35 36 37 38 39 40 41 42 43 44 45 46 47 48 49
000
ASUS43 KDMX 032307
RWRIA

WEATHER ROUNDUP FOR IOWA
NATIONAL WEATHER SERVICE DES MOINES IA
600 PM CDT THU SEP 03 2015

NOTE: "FAIR" INDICATES FEW OR NO CLOUDS BELOW 12,000 FEET WITH NO
SIGNIFICANT WEATHER AND/OR OBSTRUCTIONS TO VISIBILITY.

* - THESE STATIONS ARE NOT NWS STATIONS...THUS NOT UNDER NWS
QUALITY CONTROL.  THEY ALSO DO NOT REPORT WEATHER SUCH
AS PRECIPITATION OR FOG.

IAZ001>003-012>014-020>022-031>034-043>046-040000-
   NORTHWEST IOWA

CITY           SKY/WX    TMP DP  RH WIND       PRES   REMARKS
CARROLL *      SUNNY     86  75  70 S13       29.83S HX  95
CHEROKEE *     SUNNY     86  75  70 S12       29.81S HX  95
DENISON *      SUNNY     86  75  70 S9        29.81S HX  95
LE MARS *      MOSUNNY   86  73  66 S12       29.80S HX  93
ORANGE CITY *  SUNNY     84  73  70 S7        29.81S HX  91
SHELDON *      SUNNY     84  75  74 SE9G16    29.80S HX  92
SIOUX CITY     SUNNY     88  72  58 S12       29.78S HX  94
SPENCER        MOSUNNY   87  73  62 S9        29.82S HX  94
STORM LAKE *   SUNNY     84  75  74 S12G18    29.83F HX  92
$$

IAZ055>058-069>071-079>083-090>094-040000-
   SOUTHWEST IOWA

CITY           SKY/WX    TMP DP  RH WIND       PRES   REMARKS
ATLANTIC *     SUNNY     88  73  62 S9        29.84S HX  96
AUDUBON *      SUNNY     88  75  66 S7        29.86S HX  97
CLARINDA *     SUNNY     88  73  62 S10       29.86S HX  96
COUNCIL BLFS * SUNNY     88  73  62 S14       29.82S HX  96
CRESTON *      SUNNY     86  73  66 S12       29.89S HX  93
LAMONI         SUNNY     88  70  55 S10       29.88F HX  93
RED OAK *      SUNNY     88  73  62 S10G17    29.84S HX  96
SHENANDOAH *   SUNNY     90  72  55 S10G17    29.83F HX  96
$$

IAZ047>049-059>061-072>074-084-040000-
   CENTRAL IOWA

CITY           SKY/WX    TMP DP  RH WIND       PRES   REMARKS
AMES           SUNNY     86  73  65 S8        29.85S HX  93
ANKENY *       MOSUNNY   90  73  58 S8        29.85S HX  98
CHARITON *     SUNNY     88  72  58 S7        29.88S HX  94
DES MOINES     MOSUNNY   89  71  55 S9        29.85S HX  95
GRINNELL*      SUNNY     88  70  55 S7        29.89S HX  92
KNOXVILLE *    SUNNY     86  72  62 S8        29.87R HX  92
MARSHALLTOWN   MOSUNNY   85  73  67 S7        29.87S HX  91
PELLA *        SUNNY     90  77  66 S5        29.88S HX 102
PERRY *          N/A     88  72  58 S6        29.84F HX  94
$$

IAZ004>006-015-016-023>025-035-036-040000-
   NORTH CENTRAL IOWA

CITY           SKY/WX    TMP DP  RH WIND       PRES   REMARKS
ALGONA *       MOSUNNY   86  73  66 S10       29.84S HX  93
CLARION *      MOSUNNY   86  75  70 SE8       29.85S HX  95
ESTHERVILLE    MOSUNNY   83  74  74 SE7       29.83F HX  89
FORT DODGE *   SUNNY     88  72  58 S9        29.84S HX  94
MASON CITY     MOSUNNY   87  74  64 S9        29.88S HX  95
FOREST CITY *  MOSUNNY   86  72  62 SE7       29.86S HX  92
IOWA FALLS *     N/A     84  75  74 SE5       29.88S HX  92
$$

IAZ007>011-017>019-026>030-037>042-050>054-066-040000-
   NORTHEAST IOWA

CITY           SKY/WX    TMP DP  RH WIND       PRES   REMARKS
CEDAR RAPIDS   MOSUNNY   88  75  65 S6        29.88S HX  97
CHARLES CITY * SUNNY     86  75  70 S7        29.88S HX  95
CLINTON *      SUNNY     88  73  62 W6        29.91S HX  96
DECORAH *      PTSUNNY   86  75  70 S5        29.88S HX  95
DUBUQUE        SUNNY     87  73  62 S7        29.90F HX  94
MONTICELLO *   MOSUNNY   88  77  70 CALM      29.88S HX 100
OELWEIN *      SUNNY     86  75  70 S6        29.89S HX  95
WATERLOO       SUNNY     88  74  63 S8        29.86S HX  96
$$

IAZ064-065-067-068-078-040000-
   EAST CENTRAL IOWA

CITY           SKY/WX    TMP DP  RH WIND       PRES   REMARKS
DAVENPORT      SUNNY     88  69  53 SW6       29.89S HX  92
IOWA CITY      MOSUNNY   89  71  55 S6        29.88S HX  95
MT. PLEASANT * SUNNY     90  64  43 S3        29.89S HX  91
MUSCATINE *    SUNNY     93  66  40 SW7       29.87S HX  96
QUAD CITIES    SUNNY     90  69  50 SW7       29.88S HX  94
$$

IAZ062-063-075>077-085>089-095>099-040000-
   SOUTHEAST IOWA

CITY           SKY/WX    TMP DP  RH WIND       PRES   REMARKS
BURLINGTON     SUNNY     91  68  46 SW7       29.89S HX  95
FAIRFIELD *    SUNNY     90  68  48 SW6       29.88S HX  93
FORT MADISON * SUNNY     90  70  51 CALM      29.90S HX  95
KEOKUK *       SUNNY     91  68  46 S10       29.88F HX  95
OSKALOOSA *      N/A     90  68  48 S6        29.88S HX  93
CENTERVILLE *  SUNNY     86  70  58 S8        29.91S HX  90
OTTUMWA        SUNNY     87  72  60 S6        29.86F HX  93
WASHINGTON *     N/A    N/A N/A N/A MISG        N/A
$$

ABBREVIATIONS USED IN REMARKS
   TC - TEMPERATURES IN CELSIUS
  WCI - WIND CHILL INDEX
   HX - HEAT INDEX
  VSB - VISIBILITY
$$



USA.gov is the U.S. government's official web portal to all federal, state and local government web resources and services.